Content
SEND FEEDBACK

Daily
Averages
Monthly
Summary
Canada

INUKJUAK, QUEBEC


Home > North America > Canada > Quebec
Elevation: 20 feet     Latitude: 58 27N     Longitude: 078 07W

WEATHER
 
SELECT A DAY
Number of Records: 379,280;   Date Range: 1/1/95 - 9/17/14
 
SHARE

PRINT THIS DATA

[ ← Previous Day ]
WEATHER ALMANAC - FEBRUARY 13, 2013
[ Next Day → ]
[ °C ]   °F
Weather ElementAverageHighLow
Temperature-0.6 °F5 °F (6:15 pm)-11 °F (1:00 am)
Dewpoint-5.2 °F1.4 °F (5:37 pm)-19 °F (1:00 am)
Humidity79.2 %92 % (5:37 pm)49 % (7:00 am)
Barometer28.86 in29.65 in (1:00 am) (7:00 pm)
Wind Speed7.2 mph16.1 mph (3:00 am)
Weather ElementAverage
Visibility9.1 mi
Wind DirectionESE (104.3 °)

Weather ElementTotal
Precipitation---
Heating Degree Days68 (Base 65)
Averaged from 39 records on February 13, 2013
WEATHER CONDITIONS BREAKOUT
WIND DIRECTION BREAKOUT
WEATHER BY HOUR - FEBRUARY 13, 2013
[ °C ]   °F
Local TimeTemperatureDewpointHumidityBarometerVisibilityWind DirectionWind SpeedGust SpeedPrecipitationEventsConditions
1:00 AM-11.0 °F-19.0 °F51 %29.65 in9.0 miCalm
1:00 AM-4.0 °F-9.4 °F78 %29.64 in9.0 miESE (120°)13.8 mphClear
2:00 AM-4.0 °F-9.4 °F78 %29.65 in9.0 miEast (100°)6.9 mphScattered Clouds
3:00 AM-5.8 °F-9.4 °F84 %29.63 in9.0 miSE (130°)16.1 mphPartly Cloudy
4:00 AM-4.0 °F-7.6 °F85 %29.63 in9.0 miESE (110°)12.7 mphOvercast
5:00 AM-2.2 °F-7.6 °F78 %29.62 in9.0 miESE (110°)13.8 mphOvercast
6:00 AM-2.2 °F-5.8 °F85 %29.62 in9.0 miESE (120°)13.8 mphOvercast
7:00 AM-8.0 °F-17.0 °F49 %29.62 in9.0 miCalm
7:00 AM-2.2 °F-5.8 °F85 %29.61 in9.0 miESE (110°)15.0 mphScattered Clouds
8:00 AM-9.4 °F-13.0 °F84 %29.62 in9.0 miEast (100°)12.7 mphSnowLight Snow
9:00 AM-7.6 °F-13.0 °F77 %29.61 in15.0 miEast (90°)8.1 mphMostly Cloudy
10:00 AM-5.8 °F-11.2 °F77 %29.62 in14.0 miESE (120°)10.4 mphOvercast
10:33 AM0.0 °F0.0 °F5.0 miESE (120°)11.5 mph
11:00 AM-4.0 °F-9.4 °F78 %29.62 in11.0 miESE (120°)9.2 mphSnowLight Snow
12:00 PM-2.2 °F-7.6 °F78 %29.61 in5.0 miSE (130°)9.2 mphSnowLight Snow
1:00 PM-1.0 °F-9.0 °F55 %29.60 in9.0 miCalm
1:00 PM-0.4 °F-7.6 °F72 %29.60 in15.0 miESE (120°)9.2 mphSnowLight Snow
2:00 PM1.4 °F-4.0 °F78 %29.60 in15.0 miSE (140°)4.6 mphSnowLight Snow
3:00 PM3.2 °F-2.2 °F78 %29.61 in8.0 miSSE (150°)5.8 mphSnowLight Snow
4:00 PM-0.4 °F-4.0 °F85 %29.61 in8.0 miEast (100°)3.5 mphSnowLight Snow
5:00 PM-0.4 °F-9.4 °F66 %29.62 in6.0 miESE (110°)3.5 mphSnowLight Snow
5:37 PM3.2 °F1.4 °F92 %29.62 in5.0 miVariable2.3 mphSnowLight Snow
5:47 PM3.2 °F-0.4 °F85 %29.62 in6.0 miESE (120°)5.8 mphSnowLight Snow
6:00 PM3.2 °F-0.4 °F85 %29.62 in7.0 miSE (130°)4.6 mphSnowLight Snow
6:06 PM3.2 °F1.4 °F92 %29.62 in8.0 miSE (140°)5.8 mphSnowLight Snow
6:15 PM5.0 °F1.4 °F85 %29.62 in9.0 miSSE (150°)6.9 mphSnowLight Snow
7:00 PM0.0 °F-8.0 °F56 %29.63 in9.0 miCalmN Precipitation
7:00 PM3.2 °F-0.4 °F85 %29.62 in9.0 miEast (90°)4.6 mphSnowLight Snow
8:00 PM1.4 °F-2.2 °F85 %29.62 in9.0 miESE (110°)6.9 mphSnowLight Snow
8:04 PM1.4 °F-2.2 °F85 %29.63 in9.0 miEast (90°)5.8 mphOvercast
8:19 PM1.4 °F-2.2 °F85 %29.63 in9.0 miENE (60°)5.8 mphSnowLight Snow
8:29 PM1.4 °F-2.2 °F85 %29.62 in9.0 miNE (40°)4.6 mphOvercast
8:36 PM1.4 °F-2.2 °F85 %29.63 in9.0 miNNE (30°)4.6 mphSnowLight Snow
8:49 PM1.4 °F-2.2 °F85 %29.62 in9.0 miESE (110°)10.4 mphOvercast
9:00 PM1.4 °F-2.2 °F85 %29.62 in9.0 miESE (110°)10.4 mphOvercast
9:41 PM3.2 °F-0.4 °F85 %29.62 in9.0 miESE (120°)6.9 mphSnowLight Snow
10:00 PM3.2 °F-0.4 °F85 %29.62 in9.0 miEast (90°)5.8 mphSnowLight Snow
10:32 PM3.2 °F-0.4 °F85 %29.62 in9.0 miENE (60°)4.6 mphOvercast
11:00 PM5.0 °F-0.4 °F78 %29.61 in9.0 miEast (100°)4.6 mphOvercast
Hourly data recorded from CYPH, located miles away from Inukjuak, Quebec







STORIES FROM OUR PARTNERS